OE7SBH-WX Weather Reports


Display with metric or nautical units.
time (UTC)temp
F
wind
direction
speed
MPH
gust
MPH
rain 1hr
in
rain 24hr
in
rain mn
in
humidity
%
barometer
mb
20260831131529 77 325 8.0 13.0 0.00 0.11 0.11 61 1021.7
20260831130519 78 330 10.0 18.0 0.00 0.11 0.11 60 1021.6
20260831125529 78 330 9.0 15.0 0.00 0.11 0.11 60 1021.7
20260831124523 78 332 7.0 11.0 0.00 0.11 0.11 59 1021.9
20260831123519 78 330 7.0 11.0 0.00 0.11 0.11 58 1022.0
20260831122520 79 328 6.0 10.0 0.00 0.11 0.11 56 1021.9
20260831121518 78 323 5.0 10.0 0.00 0.11 0.11 58 1022.1
20260831120521 76 325 5.0 9.0 0.00 0.11 0.11 62 1022.2
20260831115519 76 340 4.0 8.0 0.00 0.11 0.11 67 1022.2
20260831114517 76 323 2.0 4.0 0.00 0.11 0.11 69 1022.6
20260831113529 74 329 3.0 7.0 0.00 0.11 0.11 70 1022.6
20260831112519 75 327 4.0 8.0 0.00 0.11 0.11 68 1022.8
20260831111549 75 333 3.0 7.0 0.00 0.11 0.11 68 1022.9
20260831110519 75 352 3.0 6.0 0.00 0.11 0.11 68 1023.0
20260831105528 75 329 3.0 7.0 0.00 0.11 0.11 70 1023.1
20260831104539 75 115 1.0 3.0 0.00 0.11 0.11 67 1023.2
20260831103529 73 279 1.0 3.0 0.00 0.11 0.11 70 1023.4
20260831102519 74 335 1.0 2.0 0.00 0.11 0.11 70 1023.5
20260831101529 71 23 1.0 3.0 0.00 0.11 0.11 74 1023.7
20260831100518 71 66 1.0 2.0 0.00 0.11 0.11 77 1023.9
20260831095549 70 113 1.0 3.0 0.00 0.11 0.11 80 1024.0
20260831094518 70 148 3.0 4.0 0.00 0.11 0.11 80 1024.3
20260831093549 70 119 1.0 3.0 0.00 0.11 0.11 81 1024.3
20260831092521 69 114 1.0 2.0 0.00 0.11 0.11 83 1024.5
20260831091549 68 95 0.0 1.0 0.00 0.11 0.11 84 1024.6
20260831090521 67 164 0.0 1.0 0.00 0.11 0.11 86 1024.6
20260831085549 67 49 0.0 1.0 0.00 0.11 0.11 86 1024.7
20260831084520 66 326 0.0 1.0 0.00 0.11 0.11 87 1024.7
20260831083529 67 326 1.0 2.0 0.00 0.11 0.11 88 1024.8
20260831082521 66 0.0 0.0 0.00 0.11 0.11 89 1024.8
20260831081531 65 327 0.0 1.0 0.00 0.11 0.11 90 1024.8
20260831080553 65 327 0.0 1.0 0.00 0.11 0.11 92 1024.7
20260831075528 64 327 1.0 1.0 0.00 0.11 0.11 93 1024.8
20260831074538 64 330 1.0 2.0 0.00 0.11 0.11 93 1024.5
20260831073529 64 333 0.0 1.0 0.00 0.11 0.11 94 1024.5
20260831072539 64 323 1.0 2.0 0.00 0.11 0.11 92 1024.4
20260831071529 64 299 1.0 2.0 0.00 0.11 0.11 92 1024.4
20260831070519 64 177 2.0 6.0 0.00 0.11 0.11 92 1024.3
20260831065529 64 121 1.0 6.0 0.00 0.11 0.11 90 1024.3
20260831064519 64 293 2.0 4.0 0.00 0.11 0.11 91 1024.4
20260831063529 63 180 2.0 6.0 0.01 0.11 0.11 93 1024.4
20260831062516 63 216 2.0 6.0 0.01 0.11 0.11 95 1024.3
20260831061529 63 195 3.0 7.0 0.03 0.11 0.11 95 1024.3
20260831060519 62 261 2.0 4.0 0.03 0.11 0.11 96 1024.5
20260831055549 62 143 1.0 3.0 0.03 0.11 0.11 97 1024.6
20260831054519 62 0.0 0.0 0.03 0.11 0.11 97 1024.4
20260831053529 62 310 0.0 1.0 0.02 0.10 0.10 97 1024.4
20260831052519 62 260 2.0 4.0 0.02 0.10 0.10 97 1024.3
20260831051530 62 348 1.0 3.0 0.00 0.08 0.08 96 1024.3
20260831050519 63 322 1.0 3.0 0.00 0.08 0.08 96 1024.2
20260831045529 63 127 1.0 3.0 0.00 0.08 0.08 94 1023.9
20260831044539 63 215 1.0 2.0 0.00 0.08 0.08 95 1023.7
20260831043529 63 293 0.0 2.0 0.00 0.08 0.08 95 1023.9
20260831042519 63 209 1.0 3.0 0.00 0.08 0.08 94 1024.0
20260831041549 64 84 1.0 3.0 0.00 0.08 0.08 92 1024.2
20260831040539 63 269 3.0 6.0 0.02 0.08 0.08 94 1024.3
20260831035530 63 336 6.0 8.0 0.08 0.08 0.08 96 1024.1
20260831034519 63 158 3.0 7.0 0.08 0.08 0.08 95 1023.2
20260831033529 63 5 0.0 1.0 0.08 0.08 0.08 96 1022.9
20260831032521 63 297 2.0 4.0 0.08 0.08 0.08 97 1023.1
20260831031540 63 178 2.0 3.0 0.08 0.08 0.08 99 1023.6
20260831030517 64 331 3.0 8.0 0.06 0.06 0.06 98 1023.9
20260831025529 63 339 6.0 13.0 0.00 0.00 0.00 97 1024.1
20260831024521 63 335 3.0 7.0 0.00 0.00 0.00 96 1023.9
20260831023529 63 349 1.0 2.0 0.00 0.00 0.00 96 1023.2
20260831022532 63 0.0 0.0 0.00 0.00 0.00 96 1022.9
20260831021529 64 8 0.0 1.0 0.00 0.00 0.00 96 1022.8
20260831020520 64 323 2.0 3.0 0.00 0.00 0.00 95 1022.8
20260831015530 64 323 2.0 4.0 0.00 0.00 0.00 95 1022.8
20260831014540 64 356 1.0 2.0 0.00 0.00 0.00 93 1022.7
20260831013529 65 342 1.0 2.0 0.00 0.00 0.00 92 1022.6
20260831012519 65 264 1.0 2.0 0.00 0.00 0.00 92 1022.7
20260831011529 65 202 1.0 2.0 0.00 0.00 0.00 93 1022.9
20260831010518 65 157 2.0 4.0 0.00 0.00 0.00 93 1022.9
20260831005530 65 246 0.0 1.0 0.00 0.00 0.00 91 1023.1
20260831004519 65 278 1.0 2.0 0.00 0.00 0.00 93 1023.3
20260831003550 65 314 1.0 3.0 0.00 0.00 0.00 93 1023.5
20260831002519 65 327 3.0 4.0 0.00 0.00 0.00 92 1023.5
20260831001529 65 334 2.0 3.0 0.00 0.00 0.00 91 1023.5
20260831000519 66 354 1.0 3.0 0.00 0.00 0.00 90 1023.4
20260830235529 66 0.0 0.0 0.00 0.00 0.00 88 1023.4
20260830234541 66 267 1.0 2.0 0.00 0.00 0.00 88 1023.3
20260830233529 66 309 2.0 6.0 0.00 0.00 0.00 88 1023.5
20260830232521 67 341 2.0 4.0 0.00 0.00 0.00 85 1023.6
20260830231529 68 343 2.0 4.0 0.00 0.00 0.00 83 1023.6
20260830230521 67 302 1.0 2.0 0.00 0.00 0.00 83 1023.7
20260830225529 66 293 1.0 2.0 0.00 0.00 0.00 84 1023.8
20260830224521 66 4 1.0 2.0 0.00 0.00 0.00 86 1023.6
20260830223529 66 322 0.0 1.0 0.00 0.00 0.00 84 1023.5
20260830222521 66 310 1.0 2.0 0.00 0.00 0.00 84 1023.5
20260830221528 66 278 1.0 1.0 0.00 0.00 0.00 85 1023.4
20260830220522 66 277 0.0 1.0 0.00 0.00 0.00 85 1023.3
20260830215529 67 277 0.0 1.0 0.00 0.00 0.00 82 1023.1
20260830214521 67 277 0.0 1.0 0.00 0.00 0.00 82 1023.1
20260830213529 67 296 0.0 1.0 0.00 0.00 0.00 82 1023.1
20260830212521 67 0.0 0.0 0.00 0.00 0.00 82 1023.1
20260830211529 67 0.0 0.0 0.00 0.00 0.00 81 1022.9
20260830210522 68 306 1.0 1.0 0.00 0.00 0.00 81 1022.9
20260830205529 68 319 0.0 1.0 0.00 0.00 0.00 80 1022.7
20260830204542 68 320 1.0 2.0 0.00 0.00 0.00 80 1022.5
20260830203525 69 12 0.0 1.0 0.00 0.00 0.00 78 1022.5
20260830202519 69 1 0.0 1.0 0.00 0.00 0.00 77 1022.4
20260830201529 70 146 1.0 2.0 0.00 0.00 0.00 77 1022.4
20260830200519 70 91 1.0 2.0 0.00 0.00 0.00 76 1022.4
20260830195529 71 336 1.0 2.0 0.00 0.00 0.00 75 1022.4
20260830194519 71 177 1.0 2.0 0.00 0.00 0.00 75 1022.3
20260830193529 71 162 0.0 1.0 0.00 0.00 0.00 75 1022.5
20260830192519 72 147 1.0 3.0 0.00 0.00 0.00 74 1022.2
20260830191529 72 200 1.0 3.0 0.00 0.00 0.00 73 1022.2
20260830190520 72 153 2.0 2.0 0.00 0.00 0.00 74 1021.9
20260830185529 73 50 0.0 1.0 0.00 0.00 0.00 72 1021.8
20260830184519 73 49 0.0 1.0 0.00 0.00 0.00 72 1021.7
20260830183549 74 296 1.0 1.0 0.00 0.00 0.00 69 1021.5
20260830182519 74 296 0.0 1.0 0.00 0.00 0.00 69 1021.3
20260830181529 75 32 1.0 1.0 0.00 0.00 0.00 69 1021.4
20260830180539 75 10 0.0 1.0 0.00 0.00 0.00 68 1021.2
20260830175529 75 308 0.0 1.0 0.00 0.00 0.00 67 1020.9
20260830174519 76 308 0.0 1.0 0.00 0.00 0.00 66 1020.8
20260830173529 76 308 0.0 1.0 0.00 0.00 0.00 66 1020.7
20260830172519 77 316 1.0 3.0 0.00 0.00 0.00 61 1020.6
20260830171530 78 311 1.0 3.0 0.00 0.00 0.00 59 1020.4
20260830170520 78 313 1.0 3.0 0.00 0.00 0.00 57 1020.4
20260830165530 79 317 2.0 3.0 0.00 0.00 0.00 56 1020.3
20260830164519 80 353 0.0 1.0 0.00 0.00 0.00 54 1020.3
20260830163550 80 357 2.0 6.0 0.00 0.00 0.00 54 1020.2
20260830162540 80 350 1.0 3.0 0.00 0.00 0.00 54 1020.2
20260830161549 80 351 2.0 3.0 0.00 0.00 0.00 53 1020.1
20260830160519 80 328 5.0 7.0 0.00 0.00 0.00 52 1020.1
20260830155530 81 327 6.0 11.0 0.00 0.00 0.00 51 1020.1
20260830154519 81 332 4.0 7.0 0.00 0.00 0.00 52 1020.0
20260830153549 82 321 6.0 11.0 0.00 0.00 0.00 51 1019.9
20260830152519 82 321 6.0 9.0 0.00 0.00 0.00 51 1020.0
20260830151529 81 324 5.0 8.0 0.00 0.00 0.00 52 1020.0
20260830150539 82 326 4.0 7.0 0.00 0.00 0.00 51 1020.0
20260830145530 82 325 5.0 8.0 0.00 0.00 0.00 51 1020.0
20260830144520 82 329 5.0 9.0 0.00 0.00 0.00 50 1020.1
20260830143529 82 320 4.0 7.0 0.00 0.00 0.00 51 1020.0
20260830142519 82 324 6.0 9.0 0.00 0.00 0.00 50 1020.1
20260830141530 82 328 4.0 7.0 0.00 0.00 0.00 49 1020.1
20260830140519 81 323 4.0 8.0 0.00 0.00 0.00 50 1020.2
20260830135529 82 329 1.0 3.0 0.00 0.00 0.00 51 1020.2
20260830134559 81 330 3.0 7.0 0.00 0.00 0.00 49 1020.2
20260830133529 82 314 2.0 4.0 0.00 0.00 0.00 51 1020.3
20260830132519 82 269 2.0 4.0 0.00 0.00 0.00 51 1020.6